Terminal Aerodrome Forecast
Issued by NWS Cleveland, OH

Home | Current Version | Previous Version | Text Only | Print | Product List | Glossary On
Versions: 1 2 3 4 5 6 7 8 9 10 11 12 13 14 15 16 17 18 19 20 21 22
000
FTUS41 KCLE 221100
TAFCAK
TAF
KCAK 221136Z 2212/2312 32012G18KT P6SM OVC025
      TEMPO 2212/2215 OVC035
     FM221500 31012KT P6SM OVC035
     FM221800 31007KT P6SM BKN040=

USA.gov is the U.S. government's official web portal to all federal, state and local government web resources and services.